Location: Campbell River
(50.0170°N, 125.2500°W)
Time: 06:57:34
(UTC-07:00)

Daily predictions for brighter satellites

Satellite Brightness Start Highest point End
(mag) Time Altitude Azimuth Time Altitude Azimuth Time Altitude Azimuth
Cosmos 1939 Rocket 4.3 20:19:54 10° ESE 20:23:09 23° ENE 20:26:25 10° NNE
Lacrosse 5 rocket 1.3 20:21:35 10° WNW 20:25:37 77° SW 20:29:25 10° SE
CZ-3B DEB 2.7 20:18:39 10° SW 20:29:15 82° SSE 20:33:58 10° ENE
Lacrosse 4 Rocket 3.1 20:25:36 10° WSW 20:29:19 34° NW 20:33:05 10° NNE
Cosmos 1076 Rocket 3.4 20:27:03 10° N 20:31:19 77° ENE 20:35:34 10° SSE
Cosmos 1544 3.0 20:28:50 10° S 20:32:28 68° E 20:36:10 10° NNE
Spot 2 Rocket 3.6 20:31:27 10° SSE 20:36:34 89° WSW 20:41:44 10° NNW
Okean 3 Rocket 4.1 20:32:23 10° NNW 20:36:45 64° W 20:41:07 10° S
CZ-2D R/B 3.2 20:33:17 10° SSE 20:37:10 76° ENE 20:41:05 10° N
Cosmos 2098 Rocket 4.5 20:31:04 10° S 20:38:28 67° E 20:45:51 10° NNE
Cosmos 1184 Rocket 4.0 20:36:20 10° N 20:39:15 26° ENE 20:41:45 12° SE
Cosmos 1805 3.2 20:36:45 10° S 20:40:39 85° E 20:44:35 10° N
Cosmos 1844 Rocket 4.2 20:37:08 10° WSW 20:42:25 39° NW 20:47:42 10° NNE
Timation 2 Rocket 4.1 20:36:49 10° NNW 20:43:14 83° WSW 20:49:20 10° SSE
Cosmos 1447 Rocket 4.5 20:38:27 10° N 20:44:38 89° E 20:50:47 10° S
Helios 1A 3.0 20:41:31 10° SSE 20:45:38 63° ENE 20:49:49 10° N
Cosmos 1867 3.7 20:41:20 10° SSW 20:46:39 56° ESE 20:52:01 10° NE
Cosmos 1459 Rocket 4.3 20:41:35 10° SSE 20:47:25 44° E 20:53:13 10° NNE
ALOS 3.6 20:45:11 10° S 20:49:39 44° W 20:54:08 10° NNW
Cosmos 1833 Rocket 3.0 20:44:42 10° NNW 20:50:18 68° WSW 20:55:53 10° SSE
Envisat 3.1 20:49:50 10° SE 20:54:46 56° ENE 20:59:46 10° N
Cosmos 2173 Rocket 4.2 20:49:51 10° SSE 20:55:47 50° E 21:01:50 10° NNE
Cosmos 1733 3.4 20:52:49 10° SSE 20:56:33 47° E 21:00:18 10° NNE
Cosmos 1766 Rocket 3.8 20:54:16 10° NNW 20:58:46 78° W 21:03:14 10° S
Cosmos 1470 2.9 20:55:01 10° S 20:58:53 53° E 21:02:45 10° NNE
USA 267 3.8 20:53:31 11° E 20:59:40 53° NNE 21:05:59 10° WNW
Geosat 4.3 20:58:14 10° NE 21:03:03 44° ESE 21:07:51 10° S
USA 186 1.5 21:01:21 10° S 21:03:33 55° W 21:05:44 10° NNW
Spot 1 4.4 20:58:50 10° SSE 21:03:37 86° WSW 21:08:41 10° NNW
Cosmos 1356 Rocket 3.8 21:00:01 10° N 21:03:59 43° ENE 21:06:39 18° SE
SeaSat 1 3.9 20:59:40 10° S 21:04:11 36° WSW 21:08:45 10° NW
Cosmos-2242 2.9 21:00:19 10° S 21:04:31 65° E 21:08:46 10° NNE
Cosmos 2278 Rocket 3.0 20:59:33 10° SW 21:05:07 55° NW 21:10:44 10° NNE
Cosmos 1125 Rocket 3.5 21:00:40 10° SSW 21:05:52 86° WNW 21:11:09 10° NNE
ATLAS 5 CENTAUR R/B 2.0 21:02:08 10° SSW 21:06:44 51° SE 21:11:48 10° NE
ERS-1 Rocket 3.5 21:03:15 16° SE 21:06:51 42° ENE 21:11:35 10° N
CZ-4B DEB 4.5 21:03:46 10° SSE 21:07:21 88° ENE 21:10:58 10° NNW
CZ-4B DEB 2.5 21:06:18 13° SSE 21:08:59 82° ENE 21:12:06 10° NNW
GP-B 3.1 21:04:38 10° S 21:09:05 90° SW 21:13:34 10° N
Cosmos 1340 Rocket 2.8 21:05:13 10° NNW 21:09:16 85° W 21:13:15 10° S
H-2A R/B 3.7 21:11:38 16° E 21:13:36 19° NE 21:17:11 10° NNE
ISS -3.0 21:15:04 10° SSW 21:17:59 31° SSE 21:18:09 31° SE
Resurs 01 Rocket 3.4 21:14:42 10° SSW 21:18:42 33° W 21:22:45 10° NNW
Meteor 1-29 2.9 21:15:44 10° NNE 21:19:12 61° ESE 21:22:39 10° S
Cosmos 2221 3.9 21:22:43 21° E 21:22:43 21° E 21:25:39 10° NE
Cosmos 2297 3.9 21:17:44 10° SSW 21:23:28 77° WNW 21:29:16 10° NNE
Cosmos 2016 Rocket 3.9 21:21:51 10° S 21:27:57 63° E 21:34:00 10° NNE
Cosmos 1743 Rocket 3.7 21:25:27 10° NNW 21:29:54 77° W 21:34:04 12° S
Cosmos 2082 Rocket 3.8 21:25:34 10° NW 21:30:34 32° WSW 21:35:31 10° SSW
Cosmos 1500 Rocket 3.4 21:26:31 10° N 21:30:53 82° E 21:33:45 21° SSE
SL-14 R/B 3.1 21:27:49 10° N 21:31:42 80° ENE 21:33:47 26° SSE
MetOp-A 4.4 21:30:37 27° SE 21:33:16 49° ENE 21:38:26 10° N
H-2A R/B 3.8 21:34:14 16° ENE 21:34:20 16° ENE 21:36:53 10° NNE
YAOGAN 6 2.6 21:33:13 37° SE 21:34:29 62° ENE 21:38:12 10° N
Cosmos 1805 Rocket 4.4 21:30:35 10° N 21:34:34 31° ENE 21:35:13 30° E
Cosmos 2058 3.0 21:32:27 10° N 21:36:34 56° ENE 21:37:52 38° SE
ATLAS CENTAUR R/B 2.8 21:35:43 10° NNW 21:36:38 16° N 21:36:38 16° N
Cosmos 1725 Rocket 4.1 21:31:58 11° SSE 21:37:44 53° E 21:43:42 10° NNE
Cosmos 1271 Rocket 3.3 21:33:51 10° SSW 21:37:50 60° WNW 21:41:51 10° N
ARGOS 3.7 21:36:47 30° ESE 21:38:46 41° ENE 21:43:47 10° N
Cosmos 1328 3.9 21:35:13 10° NNW 21:39:12 75° W 21:41:41 22° S
Meteor 1-11 4.1 21:37:01 10° NNW 21:42:38 85° ENE 21:46:29 21° SSE
Cosmos 2251 Rocket 3.8 21:40:48 10° NNW 21:46:05 66° WSW 21:49:45 20° S
Cosmos 2344 4.4 21:38:29 10° WSW 21:46:11 57° NNW 21:55:41 10° NE
Cosmos 2100 Rocket 4.3 21:40:48 10° SSW 21:47:07 70° WNW 21:53:31 10° N
Meteor 1-16 Rocket 4.2 21:41:46 10° S 21:47:38 75° E 21:53:36 10° NNE
SL-08 R/B 4.5 21:44:15 10° S 21:50:36 77° E 21:57:03 10° NNE
Fregat R/B Cluster 11 4.2 21:46:38 10° SW 21:50:55 66° NW 21:54:23 10° NE
Cosmos 2151 3.0 21:49:13 10° NNW 21:53:30 80° W 21:55:16 34° S
Helios 1B rocket 3.4 21:50:06 10° N 21:54:07 49° WNW 21:58:05 10° SW
Tsikada Rocket 3.9 21:48:43 10° N 21:54:58 84° E 21:58:55 24° SSE
Lacrosse 5 2.8 21:52:02 10° W 21:56:56 46° NNW 22:01:14 13° NE
SPOT 1/Viking Rocket 4.0 21:56:05 39° ESE 21:57:15 45° ENE 22:02:13 10° N
Cosmos 1939 Rocket 4.0 21:54:46 16° SSW 21:57:50 44° W 22:01:51 10° NNW
Cosmos 1703 3.1 21:58:25 10° N 22:02:23 72° E 22:02:30 71° E
SPOT 5 3.1 22:01:22 42° SE 22:03:07 69° ENE 22:08:24 10° N
Cosmos 389 Rocket 2.4 22:03:04 84° WSW 22:03:08 85° WNW 22:06:42 10° N
Lacrosse 5 rocket 3.6 22:02:09 10° W 22:04:10 14° SW 22:05:37 12° SSW
Cosmos 1626 2.2 22:00:47 10° N 22:04:14 63° NE 22:04:14 63° NE
USA 215 3.4 22:00:54 10° ENE 22:07:08 45° SE 22:13:20 10° SSW
Cosmos 1842 Rocket 4.0 22:04:40 10° SSW 22:09:03 61° WNW 22:13:25 10° N
SL-08 RB Rocket 3.8 22:09:02 54° E 22:09:26 56° ENE 22:14:01 10° N
Cosmos 2297 Rocket 4.4 22:06:59 10° N 22:09:42 13° NNE 22:12:24 10° NE
Terra 3.0 22:09:57 28° ENE 22:09:57 28° ENE 22:13:51 10° N
Meteor 2-1 Rocket 4.1 22:08:08 32° S 22:10:53 70° E 22:16:30 10° NNE
Cosmos 2369 Rocket 2.1 22:25:00 60° SE 22:25:26 62° ESE 22:30:59 10° NE
Cosmos 1833 4.2 22:20:47 10° NNW 22:26:23 66° ENE 22:27:11 59° E
USA 245 4.4 22:24:53 46° S 22:26:51 86° WSW 22:33:17 10° NNW
MetOp-B 4.3 22:25:30 41° S 22:27:19 68° WSW 22:32:41 10° NNW
Cosmos 2227 Rocket 4.0 22:32:41 10° N 22:36:45 20° NE 22:38:07 18° NE
Sich 1 3.3 22:35:24 10° N 22:39:17 67° N 22:39:17 67° N
CZ-3B DEB 2.3 22:34:46 10° W 22:41:03 44° NNW 22:41:37 42° NNE
Cosmos 2233 Rocket 3.9 22:39:15 43° S 22:41:28 87° W 22:47:39 10° N
USA 267 3.1 22:40:51 56° ESE 22:42:27 89° SSW 22:49:02 10° WNW
Cosmos 1666 Rocket 3.9 22:41:20 10° NNW 22:45:01 62° NNW 22:45:01 62° NNW
ERS-1 Rocket 4.5 22:43:15 21° SW 22:45:44 31° W 22:50:14 10° NNW
Cosmos 1633 Rocket 3.5 22:43:10 10° N 22:46:50 60° N 22:46:50 60° N
Cosmos 1943 Rocket 3.4 22:51:45 29° NE 22:51:45 29° NE 22:54:37 10° NE
SL-24 R/B - RUBIN 2 4.2 22:44:09 10° NW 22:50:24 73° NE 22:50:42 71° ENE
ATLAS 5 CENTAUR R/B 3.3 22:46:59 10° WSW 22:51:36 39° NNW 22:56:43 10° NE
H-2A R/B 2.0 22:52:16 83° SW 22:52:25 85° WSW 22:57:42 10° NNW
Cosmos 1190 Rocket 4.1 22:51:52 10° NNW 22:56:46 67° NNE 22:56:46 67° NNE
Cosmos 2221 3.5 22:59:33 45° WNW 22:59:38 45° WNW 23:03:53 10° N
H-2A R/B 3.3 23:11:21 38° NW 23:11:21 38° NW 23:14:01 10° NNW
CZ-4C R/B 2.8 23:18:41 51° NE 23:18:41 51° NE 23:23:23 10° NE
Cosmos 2219 3.4 23:13:07 10° NNW 23:18:04 63° NNE 23:18:04 63° NNE
ARGOS 4.3 23:18:17 33° WSW 23:19:06 35° W 23:23:59 10° NNW
Cosmos 1464 Rocket 4.0 23:30:37 79° NW 23:30:37 79° NW 23:36:39 10° N
ATLAS 3B R/B 3.9 23:41:20 31° ENE 23:41:20 31° ENE 23:44:57 10° NE
Cosmos 407 Rocket 4.3 23:33:27 10° NNW 23:37:26 48° NW 23:37:26 48° NW
Lacrosse 5 3.1 23:36:01 10° WNW 23:40:27 38° N 23:40:27 38° N
Terra 3.3 23:48:50 34° NW 23:48:50 34° NW 23:51:57 10° NNW
Cosmos 2034 Rocket 4.2 23:48:54 69° NNW 23:48:54 69° NNW 23:54:23 10° N
USA 215 3.3 23:43:54 10° ENE 23:50:27 76° NNW 23:56:59 10° WSW
